| time (UTC) | temp C | wind direction | speed KPH | gust KPH | rain 1hr cm | rain 24hr cm | rain mn cm | humidity % | barometer mb |
| 20260505102212 | 16 | 24 | 6.4 | 6.4 | 0.00 | 1.55 | 1.55 | 99 | 1004.7 |
| 20260505101711 | 16 | 134 | 1.6 | 3.2 | 0.00 | 1.55 | 1.55 | 99 | 1004.7 |
| 20260505101206 | 16 | 25 | 3.2 | 4.8 | 0.00 | 1.55 | 1.55 | 99 | 1004.5 |
| 20260505100702 | 16 | 114 | 1.6 | 3.2 | 0.00 | 1.55 | 1.55 | 99 | 1004.7 |
| 20260505100159 | 16 | 61 | 6.4 | 6.4 | 0.00 | 1.55 | 1.55 | 99 | 1004.6 |
| 20260505095655 | 16 | 5 | 6.4 | 6.4 | 0.00 | 1.55 | 1.55 | 99 | 1004.7 |
| 20260505095153 | 16 | 351 | 3.2 | 4.8 | 0.00 | 1.55 | 1.55 | 98 | 1004.6 |
| 20260505094649 | 16 | 24 | 9.7 | 12.9 | 0.18 | 1.55 | 1.55 | 98 | 1004.9 |
| 20260505094145 | 15 | 147 | 3.2 | 4.8 | 0.61 | 1.55 | 1.55 | 98 | 1004.5 |
| 20260505093642 | 15 | 161 | 3.2 | 4.8 | 1.32 | 1.52 | 1.52 | 98 | 1004.2 |
| 20260505093139 | 16 | 145 | 16.1 | 16.1 | 1.02 | 1.47 | 1.47 | 98 | 1004.0 |
| 20260505092636 | 16 | 160 | 6.4 | 9.7 | 0.18 | 1.30 | 1.30 | 96 | 1003.9 |
| 20260505092135 | 16 | 164 | 11.3 | 14.5 | 0.36 | 1.30 | 1.30 | 96 | 1003.8 |
| 20260505091631 | 16 | 158 | 14.5 | 16.1 | 0.18 | 1.27 | 1.27 | 97 | 1003.7 |
| 20260505091129 | 16 | 169 | 6.4 | 11.3 | 0.00 | 1.24 | 1.24 | 97 | 1004.1 |
| 20260505090626 | 16 | 163 | 6.4 | 6.4 | 0.30 | 1.24 | 1.24 | 98 | 1003.6 |
| 20260505090124 | 16 | 173 | 11.3 | 12.9 | 0.71 | 1.24 | 1.24 | 98 | 1003.5 |
| 20260505085621 | 16 | 166 | 8.0 | 11.3 | 0.43 | 1.19 | 1.19 | 98 | 1004.0 |
| 20260505085120 | 16 | 193 | 9.7 | 14.5 | 0.48 | 1.12 | 1.12 | 98 | 1003.7 |
| 20260505084617 | 16 | 202 | 6.4 | 11.3 | 0.89 | 1.12 | 1.12 | 98 | 1003.6 |
| 20260505084115 | 16 | 151 | 6.4 | 11.3 | 0.97 | 1.07 | 1.07 | 98 | 1003.6 |
| 20260505083613 | 16 | 184 | 1.6 | 3.2 | 0.48 | 0.99 | 0.99 | 98 | 1004.4 |
| 20260505083109 | 16 | 214 | 3.2 | 4.8 | 0.00 | 0.91 | 0.91 | 98 | 1004.6 |
| 20260505082605 | 16 | 209 | 3.2 | 3.2 | 0.00 | 0.91 | 0.91 | 98 | 1004.5 |
| 20260505082102 | 16 | 183 | 4.8 | 6.4 | 0.61 | 0.91 | 0.91 | 98 | 1004.3 |
| 20260505081558 | 16 | 163 | 6.4 | 9.7 | 0.61 | 0.91 | 0.91 | 98 | 1004.1 |
| 20260505081055 | 16 | 169 | 17.7 | 20.9 | 0.13 | 0.81 | 0.81 | 97 | 1003.7 |
| 20260505080551 | 16 | 185 | 12.9 | 16.1 | 0.13 | 0.81 | 0.81 | 97 | 1003.4 |
| 20260505080049 | 16 | 205 | 12.9 | 14.5 | 0.00 | 0.79 | 0.79 | 98 | 1003.5 |
| 20260505075544 | 16 | 166 | 9.7 | 16.1 | 0.18 | 0.79 | 0.79 | 98 | 1003.3 |
| 20260505075041 | 16 | 216 | 9.7 | 12.9 | 0.18 | 0.79 | 0.79 | 98 | 1003.2 |
| 20260505074538 | 16 | 158 | 12.9 | 14.5 | 0.00 | 0.76 | 0.76 | 99 | 1003.1 |
| 20260505074036 | 16 | 191 | 16.1 | 17.7 | 0.00 | 0.76 | 0.76 | 99 | 1003.6 |
| 20260505073533 | 16 | 151 | 9.7 | 11.3 | 0.00 | 0.76 | 0.76 | 99 | 1003.7 |
| 20260505073032 | 16 | 134 | 24.1 | 29.0 | 0.00 | 0.76 | 0.76 | 99 | 1003.8 |
| 20260505072526 | 16 | 172 | 14.5 | 22.5 | 0.00 | 0.76 | 0.76 | 99 | 1004.1 |
| 20260505072023 | 16 | 140 | 22.5 | 27.4 | 0.00 | 0.76 | 0.76 | 99 | 1004.2 |
| 20260505071518 | 16 | 115 | 9.7 | 12.9 | 0.00 | 0.76 | 0.76 | 99 | 1004.6 |
| 20260505071017 | 16 | 189 | 12.9 | 14.5 | 0.13 | 0.76 | 0.76 | 99 | 1005.4 |
| 20260505070514 | 16 | 167 | 11.3 | 12.9 | 0.13 | 0.76 | 0.76 | 99 | 1005.0 |
| 20260505070010 | 16 | 200 | 6.4 | 6.4 | 0.18 | 0.74 | 0.74 | 99 | 1005.4 |
| 20260505065506 | 16 | 136 | 4.8 | 6.4 | 0.30 | 0.74 | 0.74 | 99 | 1006.1 |
| 20260505065002 | 16 | 168 | 14.5 | 16.1 | 0.30 | 0.71 | 0.71 | 98 | 1006.1 |
| 20260505064459 | 16 | 173 | 4.8 | 6.4 | 0.30 | 0.69 | 0.69 | 98 | 1006.7 |
| 20260505063958 | 16 | 200 | 1.6 | 1.6 | 0.30 | 0.66 | 0.66 | 98 | 1006.9 |
| 20260505063454 | 16 | 177 | 3.2 | 3.2 | 0.36 | 0.64 | 0.64 | 98 | 1006.7 |
| 20260505062950 | 16 | 188 | 3.2 | 3.2 | 0.61 | 0.61 | 0.61 | 97 | 1006.7 |
| 20260505062448 | 16 | 196 | 6.4 | 6.4 | 1.02 | 0.58 | 0.58 | 97 | 1007.2 |
| 20260505061944 | 16 | 205 | 1.6 | 3.2 | 1.07 | 0.51 | 0.51 | 96 | 1007.2 |
| 20260505061443 | 17 | 202 | 4.8 | 9.7 | 0.89 | 0.43 | 0.43 | 95 | 1007.3 |
| 20260505060940 | 17 | 218 | 9.7 | 14.5 | 0.97 | 0.36 | 0.36 | 94 | 1007.2 |
| 20260505060437 | 17 | 266 | 3.2 | 4.8 | 0.71 | 0.25 | 0.25 | 93 | 1006.4 |
| 20260505055933 | 17 | 214 | 3.2 | 4.8 | 0.61 | 0.20 | 0.20 | 92 | 1006.5 |
| 20260505055429 | 17 | 231 | 4.8 | 6.4 | 0.61 | 0.15 | 0.15 | 91 | 1006.2 |
| 20260505054926 | 18 | 226 | 9.7 | 11.3 | 0.43 | 0.10 | 0.10 | 87 | 1005.7 |
| 20260505054423 | 18 | 257 | 8.0 | 11.3 | 0.30 | 0.05 | 0.05 | 85 | 1005.5 |
| 20260505053921 | 18 | 194 | 1.6 | 3.2 | 0.18 | 0.03 | 0.03 | 82 | 1005.4 |
| 20260505053418 | 19 | 236 | 3.2 | 4.8 | 0.00 | 0.00 | 0.00 | 78 | 1005.2 |
| 20260505052915 | 20 | 212 | 4.8 | 4.8 | 0.00 | 0.00 | 0.00 | 75 | 1004.8 |
| 20260505052412 | 20 | 176 | 3.2 | 3.2 | 0.00 | 0.00 | 0.00 | 74 | 1004.3 |
| 20260505051909 | 20 | 177 | 9.7 | 9.7 | 0.00 | 0.00 | 0.00 | 73 | 1004.3 |
| 20260505051406 | 20 | 217 | 6.4 | 6.4 | 0.00 | 0.00 | 0.00 | 71 | 1004.4 |
| 20260505050904 | 20 | 187 | 4.8 | 6.4 | 0.00 | 0.00 | 0.00 | 71 | 1004.4 |
| 20260505050402 | 20 | 155 | 11.3 | 14.5 | 0.00 | 0.00 | 0.00 | 70 | 1004.3 |
| 20260505041330 | 20 | 175 | 9.7 | 12.9 | 0.00 | 0.00 | 0.00 | 70 | 1004.6 |
| 20260505040827 | 20 | 166 | 6.4 | 6.4 | 0.00 | 0.00 | 0.00 | 69 | 1004.3 |
| 20260505040324 | 20 | 174 | 8.0 | 9.7 | 0.00 | 0.00 | 0.00 | 69 | 1004.2 |
| 20260505035821 | 20 | 186 | 9.7 | 11.3 | 0.00 | 0.00 | 0.00 | 69 | 1004.3 |
| 20260505035317 | 21 | 226 | 14.5 | 16.1 | 0.00 | 0.00 | 0.00 | 68 | 1004.3 |
| 20260505034814 | 21 | 187 | 4.8 | 6.4 | 0.00 | 0.00 | 0.00 | 68 | 1004.5 |
| 20260505034311 | 21 | 164 | 11.3 | 14.5 | 0.00 | 0.00 | 0.00 | 68 | 1004.7 |
| 20260505033808 | 21 | 160 | 6.4 | 9.7 | 0.00 | 0.00 | 0.00 | 68 | 1004.8 |
| 20260505033305 | 21 | 161 | 8.0 | 11.3 | 0.00 | 0.00 | 0.00 | 68 | 1005.0 |
| 20260505032803 | 21 | 159 | 9.7 | 12.9 | 0.00 | 0.00 | 0.00 | 68 | 1004.8 |
| 20260505032259 | 21 | 159 | 11.3 | 12.9 | 0.00 | 0.00 | 0.00 | 68 | 1004.6 |
| 20260505031757 | 21 | 207 | 9.7 | 11.3 | 0.00 | 0.00 | 0.00 | 67 | 1005.0 |
| 20260505031253 | 21 | 181 | 11.3 | 14.5 | 0.00 | 0.00 | 0.00 | 67 | 1004.7 |
| 20260505030750 | 21 | 143 | 8.0 | 11.3 | 0.00 | 0.00 | 0.00 | 67 | 1004.8 |
| 20260505030246 | 21 | 165 | 12.9 | 16.1 | 0.00 | 0.00 | 0.00 | 66 | 1004.6 |
| 20260505025741 | 21 | 176 | 9.7 | 12.9 | 0.00 | 0.00 | 0.00 | 66 | 1004.9 |
| 20260505025240 | 21 | 163 | 14.5 | 14.5 | 0.00 | 0.00 | 0.00 | 66 | 1004.9 |
| 20260505024738 | 21 | 161 | 11.3 | 12.9 | 0.00 | 0.00 | 0.00 | 66 | 1004.8 |
| 20260505024235 | 21 | 194 | 12.9 | 17.7 | 0.00 | 0.00 | 0.00 | 66 | 1004.8 |
| 20260505023732 | 21 | 187 | 12.9 | 12.9 | 0.00 | 0.00 | 0.00 | 66 | 1004.4 |
| 20260505023229 | 21 | 167 | 16.1 | 20.9 | 0.00 | 0.00 | 0.00 | 66 | 1004.6 |
| 20260505022726 | 21 | 193 | 14.5 | 16.1 | 0.00 | 0.00 | 0.00 | 65 | 1004.6 |
| 20260505022223 | 21 | 166 | 17.7 | 17.7 | 0.00 | 0.00 | 0.00 | 65 | 1004.5 |
| 20260505021720 | 21 | 176 | 14.5 | 16.1 | 0.00 | 0.00 | 0.00 | 66 | 1004.5 |
| 20260505021217 | 21 | 171 | 6.4 | 9.7 | 0.00 | 0.00 | 0.00 | 66 | 1004.4 |
| 20260505020712 | 21 | 178 | 8.0 | 9.7 | 0.00 | 0.00 | 0.00 | 65 | 1004.6 |
| 20260505020208 | 22 | 171 | 8.0 | 9.7 | 0.00 | 0.00 | 0.00 | 65 | 1004.2 |
| 20260505015706 | 22 | 191 | 9.7 | 11.3 | 0.00 | 0.00 | 0.00 | 64 | 1004.2 |
| 20260505015202 | 22 | 181 | 11.3 | 16.1 | 0.00 | 0.00 | 0.00 | 64 | 1004.3 |
| 20260505014659 | 22 | 165 | 9.7 | 14.5 | 0.00 | 0.00 | 0.00 | 64 | 1004.1 |
| 20260505014156 | 22 | 159 | 9.7 | 14.5 | 0.00 | 0.00 | 0.00 | 63 | 1004.2 |
| 20260505013654 | 22 | 170 | 8.0 | 11.3 | 0.00 | 0.00 | 0.00 | 63 | 1004.1 |
| 20260505013151 | 22 | 192 | 9.7 | 11.3 | 0.00 | 0.00 | 0.00 | 63 | 1004.1 |
| 20260505012649 | 22 | 194 | 4.8 | 9.7 | 0.00 | 0.00 | 0.00 | 63 | 1004.1 |
| 20260505012146 | 22 | 139 | 12.9 | 16.1 | 0.00 | 0.00 | 0.00 | 63 | 1004.3 |
| 20260505011641 | 22 | 162 | 3.2 | 4.8 | 0.00 | 0.00 | 0.00 | 63 | 1004.2 |
| 20260505011139 | 22 | 195 | 4.8 | 6.4 | 0.00 | 0.00 | 0.00 | 63 | 1003.9 |
| 20260505010639 | 22 | 210 | 9.7 | 11.3 | 0.00 | 0.00 | 0.00 | 63 | 1004.1 |
| 20260505010136 | 22 | 210 | 8.0 | 14.5 | 0.00 | 0.00 | 0.00 | 63 | 1004.2 |
| 20260505005632 | 22 | 179 | 12.9 | 14.5 | 0.00 | 0.00 | 0.00 | 63 | 1004.2 |
| 20260505005129 | 22 | 193 | 6.4 | 9.7 | 0.00 | 0.00 | 0.00 | 63 | 1004.3 |
| 20260505004627 | 23 | 180 | 6.4 | 9.7 | 0.00 | 0.00 | 0.00 | 62 | 1004.2 |
| 20260505004123 | 23 | 218 | 8.0 | 9.7 | 0.00 | 0.00 | 0.00 | 62 | 1004.2 |
| 20260505003620 | 23 | 185 | 3.2 | 4.8 | 0.00 | 0.00 | 0.00 | 62 | 1004.2 |
| 20260505003118 | 23 | 222 | 8.0 | 9.7 | 0.00 | 0.00 | 0.00 | 61 | 1004.3 |
| 20260505002614 | 23 | 215 | 6.4 | 9.7 | 0.00 | 0.00 | 0.00 | 61 | 1004.1 |
| 20260505002107 | 23 | 189 | 8.0 | 9.7 | 0.00 | 0.00 | 0.00 | 60 | 1004.2 |
| 20260505001603 | 23 | 190 | 12.9 | 16.1 | 0.00 | 0.00 | 0.00 | 58 | 1004.1 |
| 20260505001100 | 23 | 215 | 12.9 | 14.5 | 0.00 | 0.00 | 0.00 | 58 | 1004.3 |
| 20260505000552 | 23 | 221 | 12.9 | 14.5 | 0.00 | 0.00 | 0.00 | 58 | 1004.2 |
| 20260505000050 | 23 | 231 | 12.9 | 22.5 | 0.00 | 0.00 | 0.00 | 58 | 1004.1 |
| 20260504235546 | 24 | 176 | 14.5 | 17.7 | 0.00 | 0.00 | 0.00 | 58 | 1003.9 |
| 20260504235043 | 24 | 224 | 9.7 | 12.9 | 0.00 | 0.00 | 0.00 | 59 | 1004.0 |
| 20260504234540 | 24 | 204 | 16.1 | 24.1 | 0.00 | 0.00 | 0.00 | 58 | 1003.9 |
| 20260504234037 | 25 | 226 | 14.5 | 17.7 | 0.00 | 0.00 | 0.00 | 57 | 1003.7 |
| 20260504233532 | 25 | 235 | 9.7 | 11.3 | 0.00 | 0.00 | 0.00 | 57 | 1003.8 |
| 20260504233029 | 25 | 195 | 17.7 | 24.1 | 0.00 | 0.00 | 0.00 | 55 | 1003.9 |
| 20260504232526 | 25 | 194 | 17.7 | 22.5 | 0.00 | 0.00 | 0.00 | 55 | 1004.1 |
| 20260504232024 | 25 | 209 | 17.7 | 24.1 | 0.00 | 0.00 | 0.00 | 55 | 1003.9 |
| 20260504231521 | 25 | 197 | 9.7 | 12.9 | 0.00 | 0.00 | 0.00 | 56 | 1003.8 |
| 20260504231017 | 25 | 241 | 9.7 | 11.3 | 0.00 | 0.00 | 0.00 | 55 | 1004.0 |
| 20260504230513 | 25 | 200 | 12.9 | 16.1 | 0.00 | 0.00 | 0.00 | 55 | 1004.0 |
| 20260504230012 | 25 | 237 | 11.3 | 12.9 | 0.00 | 0.00 | 0.00 | 55 | 1003.9 |
| 20260504225509 | 25 | 221 | 19.3 | 25.7 | 0.00 | 0.00 | 0.00 | 55 | 1003.9 |
| 20260504225006 | 25 | 243 | 20.9 | 24.1 | 0.00 | 0.00 | 0.00 | 54 | 1003.8 |
| 20260504224503 | 26 | 195 | 9.7 | 16.1 | 0.00 | 0.00 | 0.00 | 55 | 1003.6 |
| 20260504224000 | 26 | 182 | 11.3 | 14.5 | 0.00 | 0.00 | 0.00 | 54 | 1003.6 |
| 20260504223456 | 26 | 153 | 9.7 | 12.9 | 0.00 | 0.00 | 0.00 | 55 | 1003.6 |
| 20260504222951 | 26 | 186 | 12.9 | 17.7 | 0.00 | 0.00 | 0.00 | 54 | 1003.4 |
| 20260504222449 | 26 | 177 | 6.4 | 12.9 | 0.00 | 0.00 | 0.00 | 54 | 1003.4 |
| 20260504221947 | 26 | 232 | 14.5 | 16.1 | 0.00 | 0.00 | 0.00 | 53 | 1003.4 |
| 20260504221444 | 26 | 196 | 17.7 | 24.1 | 0.00 | 0.00 | 0.00 | 52 | 1003.4 |
| 20260504220941 | 26 | 185 | 8.0 | 11.3 | 0.00 | 0.00 | 0.00 | 53 | 1003.5 |
| 20260504220437 | 26 | 242 | 16.1 | 17.7 | 0.00 | 0.00 | 0.00 | 53 | 1003.6 |
| 20260504215934 | 26 | 203 | 20.9 | 30.6 | 0.00 | 0.00 | 0.00 | 52 | 1003.8 |
| 20260504215431 | 26 | 196 | 22.5 | 27.4 | 0.00 | 0.00 | 0.00 | 52 | 1003.5 |
| 20260504214927 | 26 | 227 | 16.1 | 17.7 | 0.00 | 0.00 | 0.00 | 52 | 1003.6 |
| 20260504214424 | 26 | 143 | 12.9 | 14.5 | 0.00 | 0.00 | 0.00 | 52 | 1003.5 |
| 20260504213920 | 26 | 274 | 8.0 | 12.9 | 0.00 | 0.00 | 0.00 | 53 | 1003.8 |
| 20260504213416 | 26 | 202 | 24.1 | 30.6 | 0.00 | 0.00 | 0.00 | 53 | 1003.7 |
| 20260504212914 | 26 | 220 | 14.5 | 16.1 | 0.00 | 0.00 | 0.00 | 53 | 1003.9 |
| 20260504212415 | 26 | 226 | 12.9 | 16.1 | 0.00 | 0.00 | 0.00 | 52 | 1003.8 |
| 20260504211913 | 26 | 215 | 19.3 | 20.9 | 0.00 | 0.00 | 0.00 | 52 | 1003.9 |
| 20260504211409 | 26 | 290 | 9.7 | 16.1 | 0.00 | 0.00 | 0.00 | 52 | 1004.0 |
| 20260504210906 | 26 | 205 | 14.5 | 17.7 | 0.00 | 0.00 | 0.00 | 52 | 1003.9 |
| 20260504210403 | 26 | 240 | 12.9 | 16.1 | 0.00 | 0.00 | 0.00 | 53 | 1003.9 |
| 20260504205900 | 26 | 187 | 25.7 | 35.4 | 0.00 | 0.00 | 0.00 | 52 | 1004.1 |
| 20260504205358 | 26 | 224 | 14.5 | 25.7 | 0.00 | 0.00 | 0.00 | 52 | 1004.3 |
| 20260504204856 | 26 | 231 | 9.7 | 12.9 | 0.00 | 0.00 | 0.00 | 53 | 1004.4 |
| 20260504204354 | 26 | 206 | 19.3 | 29.0 | 0.00 | 0.00 | 0.00 | 52 | 1004.4 |
| 20260504203854 | 27 | 203 | 17.7 | 24.1 | 0.00 | 0.00 | 0.00 | 52 | 1004.5 |
| 20260504203349 | 27 | 233 | 12.9 | 14.5 | 0.00 | 0.00 | 0.00 | 52 | 1004.4 |
| 20260504202845 | 27 | 207 | 16.1 | 20.9 | 0.00 | 0.00 | 0.00 | 52 | 1004.5 |
| 20260504202343 | 26 | 159 | 17.7 | 25.7 | 0.00 | 0.00 | 0.00 | 53 | 1004.7 |
| 20260504201839 | 26 | 214 | 16.1 | 22.5 | 0.00 | 0.00 | 0.00 | 52 | 1004.7 |
| 20260504201337 | 26 | 225 | 12.9 | 16.1 | 0.00 | 0.00 | 0.00 | 52 | 1004.5 |
| 20260504200834 | 26 | 234 | 22.5 | 29.0 | 0.00 | 0.00 | 0.00 | 52 | 1004.7 |
| 20260504200331 | 26 | 199 | 25.7 | 27.4 | 0.00 | 0.00 | 0.00 | 52 | 1004.6 |
| 20260504195827 | 27 | 210 | 17.7 | 25.7 | 0.00 | 0.00 | 0.00 | 52 | 1004.7 |
| 20260504195323 | 26 | 237 | 8.0 | 12.9 | 0.00 | 0.00 | 0.00 | 53 | 1004.7 |
| 20260504194820 | 26 | 213 | 17.7 | 27.4 | 0.00 | 0.00 | 0.00 | 53 | 1004.8 |
| 20260504194316 | 27 | 244 | 11.3 | 14.5 | 0.00 | 0.00 | 0.00 | 52 | 1004.9 |
| 20260504193812 | 26 | 234 | 19.3 | 20.9 | 0.00 | 0.00 | 0.00 | 53 | 1005.0 |
| 20260504193310 | 26 | 212 | 14.5 | 20.9 | 0.00 | 0.00 | 0.00 | 54 | 1005.1 |
| 20260504192808 | 26 | 224 | 19.3 | 24.1 | 0.00 | 0.00 | 0.00 | 53 | 1005.3 |
| 20260504192306 | 26 | 224 | 20.9 | 24.1 | 0.00 | 0.00 | 0.00 | 53 | 1005.2 |
| 20260504191804 | 26 | 226 | 16.1 | 17.7 | 0.00 | 0.00 | 0.00 | 52 | 1005.3 |
| 20260504191301 | 27 | 198 | 17.7 | 20.9 | 0.00 | 0.00 | 0.00 | 53 | 1005.2 |
| 20260504190756 | 26 | 197 | 22.5 | 27.4 | 0.00 | 0.00 | 0.00 | 53 | 1005.3 |
| 20260504190253 | 26 | 231 | 16.1 | 20.9 | 0.00 | 0.00 | 0.00 | 53 | 1005.2 |
| 20260504185749 | 26 | 181 | 29.0 | 41.8 | 0.00 | 0.00 | 0.00 | 52 | 1005.4 |
| 20260504185246 | 26 | 198 | 19.3 | 25.7 | 0.00 | 0.00 | 0.00 | 53 | 1005.4 |
| 20260504184742 | 26 | 224 | 9.7 | 12.9 | 0.00 | 0.00 | 0.00 | 52 | 1005.2 |
| 20260504184238 | 26 | 240 | 24.1 | 33.8 | 0.00 | 0.00 | 0.00 | 51 | 1005.3 |
| 20260504183734 | 26 | 223 | 11.3 | 14.5 | 0.00 | 0.00 | 0.00 | 54 | 1005.1 |
| 20260504183231 | 25 | 220 | 17.7 | 20.9 | 0.00 | 0.00 | 0.00 | 53 | 1005.2 |
| 20260504182729 | 25 | 240 | 17.7 | 22.5 | 0.00 | 0.00 | 0.00 | 52 | 1005.4 |
| 20260504182226 | 25 | 208 | 19.3 | 25.7 | 0.00 | 0.00 | 0.00 | 53 | 1005.2 |
| 20260504181724 | 25 | 229 | 22.5 | 33.8 | 0.00 | 0.00 | 0.00 | 53 | 1005.4 |
| 20260504181221 | 25 | 211 | 19.3 | 27.4 | 0.00 | 0.00 | 0.00 | 52 | 1005.3 |
| 20260504180720 | 25 | 221 | 27.4 | 41.8 | 0.00 | 0.00 | 0.00 | 52 | 1005.6 |
| 20260504180218 | 25 | 212 | 20.9 | 29.0 | 0.00 | 0.00 | 0.00 | 53 | 1005.3 |
| 20260504175716 | 25 | 198 | 20.9 | 25.7 | 0.00 | 0.00 | 0.00 | 53 | 1005.7 |
| 20260504175212 | 25 | 188 | 24.1 | 29.0 | 0.00 | 0.00 | 0.00 | 53 | 1005.6 |
| 20260504174710 | 25 | 243 | 11.3 | 14.5 | 0.00 | 0.00 | 0.00 | 54 | 1005.6 |
| 20260504174208 | 24 | 197 | 19.3 | 25.7 | 0.00 | 0.00 | 0.00 | 54 | 1005.6 |
| 20260504173704 | 24 | 167 | 16.1 | 25.7 | 0.00 | 0.00 | 0.00 | 54 | 1005.6 |
| 20260504173201 | 25 | 260 | 22.5 | 27.4 | 0.00 | 0.00 | 0.00 | 54 | 1005.8 |
| 20260504172658 | 24 | 199 | 33.8 | 43.5 | 0.00 | 0.00 | 0.00 | 53 | 1006.0 |
| 20260504172154 | 24 | 233 | 20.9 | 30.6 | 0.00 | 0.00 | 0.00 | 54 | 1005.9 |
| 20260504171650 | 25 | 176 | 9.7 | 14.5 | 0.00 | 0.00 | 0.00 | 54 | 1005.8 |
| 20260504171148 | 23 | 228 | 30.6 | 38.6 | 0.00 | 0.00 | 0.00 | 54 | 1005.9 |
| 20260504170644 | 25 | 285 | 24.1 | 29.0 | 0.00 | 0.00 | 0.00 | 54 | 1006.1 |
| 20260504170142 | 23 | 273 | 6.4 | 11.3 | 0.00 | 0.00 | 0.00 | 54 | 1006.0 |
| 20260504151028 | 22 | 212 | 16.1 | 27.4 | 0.00 | 0.00 | 0.00 | 57 | 1006.5 |
| 20260504150525 | 21 | 210 | 14.5 | 17.7 | 0.00 | 0.00 | 0.00 | 57 | 1006.8 |
| 20260504140950 | 20 | 201 | 17.7 | 22.5 | 0.00 | 0.00 | 0.00 | 57 | 1007.7 |
| 20260504140447 | 20 | 244 | 9.7 | 12.9 | 0.00 | 0.00 | 0.00 | 58 | 1007.6 |
| 20260504130411 | 19 | 217 | 16.1 | 24.1 | 0.00 | 0.00 | 0.00 | 59 | 1007.9 |
| 20260504110259 | 17 | 219 | 12.9 | 16.1 | 0.00 | 0.00 | 0.00 | 61 | 1008.3 |